User: anonymous   Login
Location: Lafig�re
(44.4503°N, 4.0357°E)
Time: 20:51:57
(UTC+00:00)
Language:

Vanguard 2 - Orbit

View from above orbital plane
View from above orbital plane
View from above satellite
View from above satellite

Ground track
Ground track

The orbit data is extracted from the following two-line orbital elements,

1 00011U 59001A   21020.89375181  .00000328  00000-0  17977-3 0  9991
2 00011  32.8686 319.0254 1467312  39.0485 330.7350 11.85733986300795
Epoch (UTC): 20 January 2021 21:27:00
Eccentricity: 0.1467312
inclination: 32.8686°
perigee height: 553 km
apogee height: 2937 km
right ascension of ascending node: 319.0254°
argument of perigee: 39.0485°
revolutions per day: 11.85733986
mean anomaly at epoch: 330.7350°
orbit number at epoch: 30079

The dashed part of the orbit path shows where the satellite is in the earth's shadow,  

DLR